Regional Weather Roundup
Issued by NWS

Home | Current Version | Previous Version | Graphics & Text | Print | Product List | Glossary On
Versions: 1 2 3 4 5 6 7 8 9 10 11 12 13 14 15 16 17 18 19 20 21 22 23 24 25 26 27 28 29 30 31 32 33 34 35 36 37 38 39 40 41 42 43 44 45 46 47 48 49 50
685
ASUS45 KCYS 201810
RWRWY

WYOMING REGIONAL WEATHER ROUNDUP
NATIONAL WEATHER SERVICE CHEYENNE WY
1100 AM MST MON FEB 20 2017

NOTE:  "FAIR" INDICATES FEW OR NO CLOUDS BELOW 12,000 FEET
WITH NO SIGNIFICANT WEATHER AND/OR OBSTRUCTIONS TO VISIBILITY.

WYZ001-201900-
YELLOWSTONE NATIONAL PARK

CITY           SKY/WX    TMP DP  RH WIND       PRES   REMARKS
LK YELLOWSTONE   N/A     29  28  96 VRB3      29.91R
6HR MIN TEMP:  23; 6HR MAX TEMP:  29; 6HR PCP:  0.07;

W YELLOWSTONE  NOT AVBL

$$
WYZ002>013-054>058-071-098>099-201900-
NORTHERN WYOMING

CITY           SKY/WX    TMP DP  RH WIND       PRES   REMARKS
JACKSON        CLOUDY    30  30 100 SW10      29.97R WCI  21
CODY           FAIR      47  21  35 VRB5      29.84R
GREYBULL       NOT AVBL
WORLAND        FAIR      45  29  53 S9        29.86F
6HR MIN TEMP:  27; 6HR MAX TEMP:  46;

SHERIDAN       FAIR      50  22  33 SE20      29.81S
6HR MIN TEMP:  29; 6HR MAX TEMP:  50;

BUFFALO        FAIR      51  20  29 S25G35    29.82F
6HR MIN TEMP:  32; 6HR MAX TEMP:  52;

GILLETTE       FAIR      50  25  37 SW20      29.84F
6HR MIN TEMP:  32; 6HR MAX TEMP:  50;

HULETT         FAIR      48  32  53 S10G16    29.86S
NEWCASTLE      FAIR      46  30  53 NW8       29.89F

$$
WYZ014>020-022>026-101>103-201900-
CENTRAL WYOMING

CITY           SKY/WX    TMP DP  RH WIND       PRES   REMARKS
BIG PINEY      FAIR      20  16  84 CALM      30.05R
6HR MIN TEMP:   9; 6HR MAX TEMP:  22; 6HR PCP: TRACE;

PINEDALE       FAIR      28  23  80 SE6       30.05R WCI  22
DUBOIS         CLOUDY    37  25  60 CALM      29.91R
LANDER         FAIR      48  23  37 N14G20    29.90S
6HR MIN TEMP:  26; 6HR MAX TEMP:  49;

RIVERTON       FAIR      37  24  59 N6        29.93R WCI  32
6HR MIN TEMP:  24; 6HR MAX TEMP:  38;

CASPER         FAIR      47  24  40 SW25G35   29.95R
6HR MIN TEMP:  21; 6HR MAX TEMP:  47;

DOUGLAS        FAIR      52  16  24 W13       29.94R
6HR MIN TEMP:  30; 6HR MAX TEMP:  52;


$$
WYZ021-027>030-104>119-201900-
SOUTHERN WYOMING

CITY           SKY/WX    TMP DP  RH WIND       PRES   REMARKS
EVANSTON       FAIR      36  28  73 S10       30.05R WCI  28
6HR MIN TEMP:  23; 6HR MAX TEMP:  36;

KEMMERER         N/A     39  28  65 SW10G20   30.05R WCI  32
FORT BRIDGER   CLEAR     41  30  65 SW9       30.08R
ROCK SPRINGS   FAIR      38  28  67 W6        30.06R WCI  33
6HR MIN TEMP:  29; 6HR MAX TEMP:  39;

DIXON            N/A     38  30  73 S13G21    30.15F WCI  30
RAWLINS        FAIR      37  28  70 SW25G37   30.04F WCI  25
6HR MIN TEMP:  28; 6HR MAX TEMP:  38;

SARATOGA       FAIR      41  28  60 SW17G30   30.08F
LARAMIE        FAIR      44  16  32 W21G29    30.02R
6HR MIN TEMP:  27; 6HR MAX TEMP:  44;

CHEYENNE       FAIR      49  13  23 NW23G35   29.97F
6HR MIN TEMP:  36; 6HR MAX TEMP:  49;

TORRINGTON     FAIR      53  16  23 VRB3      29.93S
6HR MIN TEMP:  32; 6HR MAX TEMP:  53;

PINE BLUFFS    FAIR      52  16  24 NW23G35   29.97S

$$




USA.gov is the U.S. government's official web portal to all federal, state and local government web resources and services.